[Date Prev][Date Next][Thread Prev][Thread Next] - [Date Index][Thread Index][Author Index]
2 Line ISS Keps 3-7
- Subject: [sarex] 2 Line ISS Keps 3-7
- From: "Dave Larsen PhD" <doc@xxxxxxxxxxx>
- Date: Thu, 7 Mar 2002 02:37:02 -0800
ISS
1 25544U 98067A 02066.23796328 .00086786 00000-0 10420-2 0 1563
2 25544 51.6395 205.1265 0005711 154.9146 277.1058 15.60128846188138
----
Via the sarex mailing list at AMSAT.ORG courtesy of AMSAT-NA.
To unsubscribe, send "unsubscribe sarex" to Majordomo@amsat.org
AMSAT Home